Zurück zum Katalog

COSMOS 903 DEB

LostHEO
NORAD 32962·DEBRIS·🇷🇺 Russia

Gestartet Apr 11, 1977 von Plesetsk Cosmodrome

Loading…

Nächste Überflüge (nächste 24 Stunden)

TLE

VeraltetSource: Space-Track

Epoche: Sep 16, 2011, 21:35 UTC

1 32962U 77027H   11259.89968049 -.00000695  00000-0  00000+0 0  9996
2 32962  67.1851 280.7157 6080929  53.2508 357.9332  1.98897443 47937

Verfolge COSMOS 903 DEB in Echtzeit mit AllMySat

Download on the App Store